Regional Weather Roundup
Issued by NWS

Home | Current Version | Previous Version | Text Only | Print | Product List | Glossary Off
Versions: 1 2 3 4 5 6 7 8 9 10 11 12 13 14 15 16 17 18 19 20 21 22 23 24 25 26 27

000
ASUS45 KTFX 250210
RWRMT
MONTANA REGIONAL WEATHER ROUNDUP
NATIONAL WEATHER SERVICE GREAT FALLS MT
800 PM MDT SUN JUL 24 2016

NOTE: "FAIR" INDICATES FEW OR NO CLOUDS BELOW 12000 FEET WITH NO
SIGNIFICANT WEATHER AND/OR OBSTRUCTIONS TO VISIBILITY.

MTZ001>007-043-250300-
WEST OF THE DIVIDE

CITY           SKY/WX    TMP DP  RH WIND       PRES   REMARKS
KALISPELL      SUNNY     79  49  34 SE8       30.01F
MISSOULA       SUNNY     85  43  22 N8        30.01S
BUTTE          SUNNY     81  33  17 NW9       30.13R
MULLAN PASS    SUNNY     66  46  48 MISG      30.21F
ANACONDA         N/A     75  45  33 N6        30.10R
DEER LODGE       N/A     79  39  24 NW8       30.11S
EUREKA           N/A     86  48  26 S6        29.98S
HAMILTON         N/A     81  48  32 CALM      30.03S
LIBBY            N/A     84  46  26 SW6       30.00S
PLAINS           N/A     86  48  26 W8        29.99F
RONAN            N/A     82  47  29 CALM      30.07S
$$

MTZ008-052>055-250300-
SOUTHWEST MONTANA

CITY           SKY/WX    TMP DP  RH WIND       PRES   REMARKS
BOZEMAN        CLEAR     84  40  21 E3        30.06S
DILLON         CLEAR     80  44  27 NE9       30.07S
W YELLOWSTONE  CLEAR     75  23  14 SW9       30.25R
ENNIS          CLEAR     82  32  16 E7        30.15S
TWIN BRIDGES     N/A     87  38  17 CALM      30.05F
$$

MTZ009-010-012-014-046-048-049-054-250300-
EAST SLOPES AND CENTRAL MONTANA

CITY           SKY/WX    TMP DP  RH WIND       PRES   REMARKS
CUT BANK         N/A     79  44  28 W14       30.00S
GREAT FALLS    CLEAR     83  35  18 E6        29.99F
MALMSTROM AFB  CLEAR     82  39  21 E2        29.99S
HELENA         CLEAR     87  37  17 NE3       30.00F
CHOTEAU          N/A     82  37  20 E8        30.02S
CONRAD           N/A     85  47  26 S1        30.02F
$$

MTZ011-013-016-021-045-047-050-051-250300-
NORTH CENTRAL MONTANA

CITY           SKY/WX    TMP DP  RH WIND       PRES   REMARKS
HAVRE          CLEAR     82  47  29 S5        29.95S
LEWISTOWN      CLEAR     79  50  36 N5        30.06S
N BAR RANCH      N/A     77  41  27 NE7       30.10S
CHINOOK          N/A     84  46  26 CALM      29.95F
$$

MTZ017>020-022>027-061-062-250300-
NORTHEAST MONTANA

CITY           SKY/WX    TMP DP  RH WIND       PRES   REMARKS
GLASGOW        CLEAR     82  51  34 NE6       29.96S
JORDAN           N/A     86  40  19 N6        29.97F
SIDNEY         CLEAR     83  56  39 E3        29.96F
WOLF POINT     CLEAR     85  47  26 W5        29.95S
PLENTYWOOD       N/A     79  57  47 NE5       29.98S
POPLAR           N/A     88  54  31 CALM      29.96S
SCOBEY           N/A     84  58  41 CALM      29.98F
$$

MTZ028>42-056>058-250300-
SOUTHCENTRAL AND SOUTHEAST MONTANA

CITY           SKY/WX    TMP DP  RH WIND       PRES   REMARKS
BAKER          CLEAR     82  48  30 E8        30.03S
BILLINGS       CLEAR     87  38  17 SW3       30.01S
LIVINGSTON     CLEAR     84  31  14 NW3       30.07R
MILES CITY     CLEAR     89  43  20 NE7       29.96S
EKALAKA          N/A     85  41  21 CALM      30.03R
FORSYTH          N/A     90  45  20 CALM      29.96S
LAUREL           N/A     87  44  22 CALM      30.01
ROUNDUP          N/A     85  41  21 CALM      29.93S
$$

REGIONAL REPORTS...DAKOTAS

CITY           SKY/WX    TMP DP  RH WIND       PRES   REMARKS
WILLISTON      CLEAR     83  56  39 CALM      29.97S
MINOT          CLEAR     76  61  59 NE3       29.98S
DICKINSON      CLEAR     77  54  44 E5        30.01S
CROSBY           N/A     72  64  78 NE7       30.01R
WATFORD CITY     N/A    N/A N/A N/A MISG        N/A
BISMARCK       CLEAR     75  60  59 E8        30.01S
GRAND FORKS    PTCLDY    71  62  73 W7        29.92R
FARGO          CLEAR     75  61  61 W5        29.95R
BUFFALO SD       N/A     83  45  26 S14       29.98S
RAPID CITY     CLEAR     77  51  40 SE9       30.08R
$$

REGIONAL REPORTS...WYOMING/IDAHO/WASHINGTON

CITY           SKY/WX    TMP DP  RH WIND       PRES   REMARKS
GILLETTE       CLEAR     83  39  21 E6        30.08S
SHERIDAN       CLEAR     86  43  22 E3        30.04S
BUFFALO WY     CLEAR     83  39  21 NE6       30.12S
CODY           CLEAR     82  36  18 E7        30.11R
YELLOWSTONE LA   N/A     70  21  15 W3        30.36R
IDAHO FALLS    CLEAR     84  30  14 S8        30.10S
SALMON         SUNNY     84  46  26 NW5       29.96F
BOISE          SUNNY     90  33  13 W10       29.95F
SPOKANE        SUNNY     85  43  22 NE3       30.00F
$$

REGIONAL REPORTS...ALBERTA

CITY           SKY/WX    TMP DP  RH WIND       PRES   REMARKS
EDMONTON       LGT RAIN  73  55  53 NW8       29.88R
CALGARY        PTSUNNY   73  54  49 S9        29.95R
LETHBRIDGE     MOSUNNY   81  52  36 SW15      29.94F
MEDICINE HAT   SUNNY     79  55  44 SW5       29.92F
WATERTON GATE    N/A     73  48  40 W10         N/A
MILK RIVER       N/A     77  54  44 N8          N/A
ONEFOUR          N/A     81  43  26 N7          N/A
$$

REGIONAL REPORTS...SASKATCHEWAN

CITY           SKY/WX    TMP DP  RH WIND       PRES   REMARKS
SWIFT CURRENT  CLEAR     75  63  64 SE5       29.97S
SASKATOON      PTCLDY    75  61  60 SW9       29.92S
ROCKGLEN         N/A     73  55  53 NE2         N/A
ASSINIBOIA       N/A    N/A N/A N/A SW7         N/A
$$




USA.gov is the U.S. government's official web portal to all federal, state and local government web resources and services.